Location: Albany
(35.0170°S, 117.8920°E)
Time: 21:46:36
(UTC+08:00)

A-11 Canister half - Pass Details

Date: 24 January 2021
Orbit: 1525 x 1684 km, 47.3° (Epoch: 03 March)

Event Time Altitude Azimuth Distance (km) Brightness Sun altitude
Rises 05:49:22 0° 254° (WSW) 4,921 11.2 4.8°
Reaches altitude 10° 05:52:54 10° 246° (WSW) 3,917 10.7 5.5°
Maximum altitude 06:02:10 40° 178° (S) 2,243 10.2 7.3°
Drops below altitude 10° 06:11:09 10° 110° (ESE) 3,798 14.7 9.1°
Sets 06:14:31 0° 102° (ESE) 4,759 13.9 9.7°
